Regional Weather Roundup
Issued by NWS Midland/Odessa, TX

Home | Current Version | Previous Version | Text Only | Print | Product List | Glossary On
Versions: 1 2 3 4 5 6 7 8 9 10 11 12 13 14 15 16 17 18 19 20 21 22 23 24 25 26 27 28 29 30 31 32 33 34 35 36 37 38 39 40 41 42 43 44 45 46 47 48 49 50
000
ASUS44 KMAF 030910
RWRMAF
MIDLAND AREA WEATHER ROUNDUP
NATIONAL WEATHER SERVICE MIDLAND TX
300 AM CST SAT DEC 03 2016

...IN SOUTHWEST TEXAS AND SOUTHEAST NEW MEXICO...

CITY           SKY/WX    TMP DP  RH WIND       PRES   REMARKS
ALPINE         CLOUDY    44  43  98 NE7       30.02S VSB 3/4 WCI  40
ANDREWS        RAIN      42  42 100 N9        30.02F WCI  36
ARTESIA        LGT RAIN  36  36 100 N20       30.09F WCI  25
BIG SPRING     CLOUDY    45  44  96 NE9       30.03S WCI  40
CARLSBAD       CLOUDY    40  39  97 NW20      30.05R WCI  30
DRYDEN           N/A     57  56  96 NE8       29.89S
FORT STOCKTON  CLOUDY    44  44 100 NW9       29.98  FOG     WCI  39
GUAD PASS      LGT RAIN  36  36 100 E36       29.92F VSB 1/4 WCI  22
HOBBS          NOT AVBL
MARFA          CLOUDY    44  43  96 N5        29.96S
MIDLAND AIRPK  RAIN      46  46 100 E12G17    30.00R
MIDLAND INTL   HVY RAIN  47  44  90 N13       29.97F FOG
ODESSA         LGT RAIN  45  43  93 N13       29.99S WCI  39
PECOS          CLOUDY    44  42  93 N12       29.99F WCI  38
PRESIDIO       PTSUNNY   52  48  86 NW7       29.88F
SEMINOLE       LGT RAIN  40  40 100 NE10G17   30.04F WCI  34
SNYDER         CLOUDY    43  42  95 NE13      30.05F WCI  37
WINK           CLOUDY    43  42  97 N17       29.99S WCI  35
$$
...OTHER STATIONS IN TEXAS...

CITY           SKY/WX    TMP DP  RH WIND       PRES   REMARKS
ABILENE        LGT RAIN  46  44  93 E9        30.06F
AMARILLO       CLOUDY    35  35 100 N9        30.14F FOG     WCI  28
AUSTIN         NOT AVBL
BROWNSVILLE    CLOUDY    77  72  84 S14       29.85S
CORPUS CHRISTI CLOUDY    65  63  93 NE9       29.84F
DALLAS FTW     LGT RAIN  51  44  77 SE10      30.12S
DEL RIO        RAIN      58  58 100 S5        29.91F FOG
EL PASO        CLOUDY    45  37  73 NE14      29.92F WCI  38
HOUSTON INT    NOT AVBL
LUBBOCK        DRIZZLE   40  39  97 E10       30.07F WCI  33
SAN ANGELO     LGT RAIN  48  45  89 NE12      30.00S
SAN ANTONIO    RAIN      52  50  93 NE9       29.92F FOG
WACO           LGT RAIN  48  47  96 NE14      30.06F FOG
WICHITA FALLS  NOT AVBL
$$
...OTHER LOCATIONS IN NEW MEXICO...

CITY           SKY/WX    TMP DP  RH WIND       PRES   REMARKS
ALAMAGORDO     NOT AVBL
ALBUQUERQUE    FLURRIES  34  30  85 NE6       30.11S WCI  29
CANNON AFB     LGT RAIN  33  33 100 NE16      30.11S WCI  23
CLOVIS         CLOUDY    34  30  86 N16       30.11F WCI  23
HOLLOMAN AFB   LGT RAIN  43  28  56 NW9       29.99R WCI  37
ROSWELL        LGT SNOW  35  32  88 N16       30.09F FOG     WCI  25
RUIDOSO        LGT SNOW  27  25  93 S7        30.07R WCI  19
SANTA FE       LGT SNOW  28  25  88 SW3       30.10  FOG
TRUTH OR CONSE CLOUDY    38  26  62 NE21G35   30.00R WCI  28
TUCUMCARI      LGT SNOW  32  30  92 N13       30.15F FOG     WCI  22
$$




USA.gov is the U.S. government's official web portal to all federal, state and local government web resources and services.